| time (UTC) | temp F | wind direction | speed MPH | gust MPH | rain 1hr in | rain 24hr in | rain mn in | humidity % | barometer mb |
| 20260505211321 | 52 | 0.0 | 0.0 | 0.00 | 0.00 | 0.00 | 82 | 1015.1 | |
| 20260505210817 | 51 | 0.0 | 0.0 | 0.00 | 0.00 | 0.00 | 79 | 1015.4 | |
| 20260505210314 | 51 | 0.0 | 0.0 | 0.00 | 0.00 | 0.00 | 79 | 1015.4 | |
| 20260505205812 | 51 | 0.0 | 0.0 | 0.00 | 0.00 | 0.00 | 78 | 1015.4 | |
| 20260505205310 | 50 | 0.0 | 0.0 | 0.00 | 0.00 | 0.00 | 75 | 1015.9 | |
| 20260505204806 | 51 | 0.0 | 0.0 | 0.00 | 0.00 | 0.00 | 73 | 1015.9 | |
| 20260505204304 | 51 | 0.0 | 0.0 | 0.00 | 0.00 | 0.00 | 70 | 1015.9 | |
| 20260505203801 | 52 | 0.0 | 0.0 | 0.00 | 0.00 | 0.00 | 68 | 1016.3 | |
| 20260505203258 | 52 | 0.0 | 0.0 | 0.00 | 0.00 | 0.00 | 68 | 1016.3 | |
| 20260505202754 | 53 | 0.0 | 0.0 | 0.00 | 0.00 | 0.00 | 65 | 1015.9 | |
| 20260505202250 | 55 | 0.0 | 0.0 | 0.00 | 0.00 | 0.00 | 59 | 1015.9 | |
| 20260505201747 | 58 | 0.0 | 0.0 | 0.00 | 0.00 | 0.00 | 51 | 1015.4 | |
| 20260505201244 | 58 | 0.0 | 0.0 | 0.00 | 0.00 | 0.00 | 51 | 1015.1 | |
| 20260505200743 | 59 | 0.0 | 0.0 | 0.00 | 0.00 | 0.00 | 52 | 1014.6 | |
| 20260505200240 | 59 | 0.0 | 0.0 | 0.00 | 0.00 | 0.00 | 56 | 1014.6 | |
| 20260505195735 | 59 | 0.0 | 0.0 | 0.00 | 0.00 | 0.00 | 51 | 1015.1 | |
| 20260505195233 | 59 | 0.0 | 0.0 | 0.00 | 0.00 | 0.00 | 49 | 1014.6 | |
| 20260505194730 | 60 | 0.0 | 0.0 | 0.00 | 0.00 | 0.00 | 49 | 1015.1 | |
| 20260505194227 | 59 | 0.0 | 0.0 | 0.00 | 0.00 | 0.00 | 49 | 1014.6 | |
| 20260505193722 | 59 | 0.0 | 0.0 | 0.00 | 0.00 | 0.00 | 49 | 1014.6 | |
| 20260505193219 | 59 | 0.0 | 0.0 | 0.00 | 0.00 | 0.00 | 50 | 1014.6 | |
| 20260505192718 | 59 | 0.0 | 0.0 | 0.00 | 0.00 | 0.00 | 48 | 1014.6 | |
| 20260505192215 | 59 | 0.0 | 0.0 | 0.00 | 0.00 | 0.00 | 48 | 1014.6 | |
| 20260505191713 | 59 | 0.0 | 0.0 | 0.00 | 0.00 | 0.00 | 49 | 1014.6 | |
| 20260505191211 | 59 | 0.0 | 0.0 | 0.00 | 0.00 | 0.00 | 51 | 1014.6 | |
| 20260505190707 | 58 | 0.0 | 0.0 | 0.00 | 0.00 | 0.00 | 52 | 1014.6 | |
| 20260505190202 | 57 | 0.0 | 0.0 | 0.00 | 0.00 | 0.00 | 53 | 1015.1 | |
| 20260505185659 | 57 | 0.0 | 0.0 | 0.00 | 0.00 | 0.00 | 55 | 1015.1 | |
| 20260505185155 | 57 | 0.0 | 0.0 | 0.00 | 0.00 | 0.00 | 55 | 1015.1 | |
| 20260505184651 | 57 | 0.0 | 0.0 | 0.00 | 0.00 | 0.00 | 57 | 1015.1 | |
| 20260505184148 | 56 | 0.0 | 0.0 | 0.00 | 0.00 | 0.00 | 57 | 1015.4 | |
| 20260505183645 | 56 | 0.0 | 0.0 | 0.00 | 0.00 | 0.00 | 59 | 1015.1 | |
| 20260505183143 | 55 | 0.0 | 0.0 | 0.00 | 0.00 | 0.00 | 61 | 1015.4 | |
| 20260505182638 | 55 | 0.0 | 0.0 | 0.00 | 0.00 | 0.00 | 61 | 1015.4 | |
| 20260505182136 | 55 | 0.0 | 0.0 | 0.00 | 0.00 | 0.00 | 61 | 1015.9 | |
| 20260505181632 | 55 | 0.0 | 0.0 | 0.00 | 0.00 | 0.00 | 62 | 1015.9 | |
| 20260505181129 | 54 | 0.0 | 0.0 | 0.00 | 0.00 | 0.00 | 66 | 1015.9 | |
| 20260505180625 | 54 | 0.0 | 0.0 | 0.00 | 0.00 | 0.00 | 65 | 1015.9 | |
| 20260505180123 | 54 | 0.0 | 0.0 | 0.00 | 0.00 | 0.00 | 66 | 1015.9 | |
| 20260505175619 | 54 | 0.0 | 0.0 | 0.00 | 0.00 | 0.00 | 66 | 1015.9 | |
| 20260505175115 | 54 | 0.0 | 0.0 | 0.00 | 0.00 | 0.00 | 72 | 1015.9 | |
| 20260505174607 | 53 | 0.0 | 0.0 | 0.00 | 0.00 | 0.00 | 76 | 1015.9 | |
| 20260505174103 | 53 | 0.0 | 0.0 | 0.00 | 0.00 | 0.00 | 73 | 1016.3 | |
| 20260505173559 | 53 | 0.0 | 0.0 | 0.00 | 0.00 | 0.00 | 68 | 1015.9 | |
| 20260505173056 | 53 | 0.0 | 0.0 | 0.00 | 0.00 | 0.00 | 69 | 1015.9 | |
| 20260505172554 | 53 | 0.0 | 0.0 | 0.00 | 0.00 | 0.00 | 66 | 1015.9 | |
| 20260505172050 | 53 | 0.0 | 0.0 | 0.00 | 0.00 | 0.00 | 67 | 1015.9 | |
| 20260505171545 | 52 | 0.0 | 0.0 | 0.00 | 0.00 | 0.00 | 66 | 1015.9 | |
| 20260505171042 | 52 | 0.0 | 0.0 | 0.00 | 0.00 | 0.00 | 66 | 1015.9 | |
| 20260505170539 | 52 | 0.0 | 0.0 | 0.00 | 0.00 | 0.00 | 66 | 1015.9 | |
| 20260505170035 | 52 | 0.0 | 0.0 | 0.00 | 0.00 | 0.00 | 65 | 1015.9 | |
| 20260505165530 | 52 | 0.0 | 0.0 | 0.00 | 0.00 | 0.00 | 65 | 1015.9 | |
| 20260505165026 | 52 | 0.0 | 0.0 | 0.00 | 0.00 | 0.00 | 66 | 1015.9 | |
| 20260505164522 | 51 | 0.0 | 0.0 | 0.00 | 0.00 | 0.00 | 66 | 1015.9 | |
| 20260505164020 | 51 | 0.0 | 0.0 | 0.00 | 0.00 | 0.00 | 66 | 1015.9 | |
| 20260505163519 | 51 | 0.0 | 0.0 | 0.00 | 0.00 | 0.00 | 67 | 1015.9 | |
| 20260505163015 | 51 | 0.0 | 0.0 | 0.00 | 0.00 | 0.00 | 68 | 1015.9 | |
| 20260505162509 | 50 | 0.0 | 0.0 | 0.00 | 0.00 | 0.00 | 69 | 1015.9 | |
| 20260505162006 | 50 | 0.0 | 0.0 | 0.00 | 0.00 | 0.00 | 69 | 1015.9 | |
| 20260505161502 | 50 | 0.0 | 0.0 | 0.00 | 0.00 | 0.00 | 70 | 1015.9 | |
| 20260505160959 | 50 | 0.0 | 0.0 | 0.00 | 0.00 | 0.00 | 71 | 1015.9 | |
| 20260505160458 | 50 | 0.0 | 0.0 | 0.00 | 0.00 | 0.00 | 72 | 1015.9 | |
| 20260505152928 | 48 | 0.0 | 0.0 | 0.00 | 0.00 | 0.00 | 77 | 1015.9 | |
| 20260505152420 | 48 | 0.0 | 0.0 | 0.00 | 0.00 | 0.00 | 77 | 1015.9 | |
| 20260505151919 | 48 | 0.0 | 0.0 | 0.00 | 0.00 | 0.00 | 77 | 1015.9 | |
| 20260505151410 | 48 | 0.0 | 0.0 | 0.00 | 0.00 | 0.00 | 77 | 1015.9 | |
| 20260505150907 | 48 | 0.0 | 0.0 | 0.00 | 0.00 | 0.00 | 77 | 1015.9 | |
| 20260505150404 | 48 | 0.0 | 0.0 | 0.00 | 0.00 | 0.00 | 77 | 1015.9 | |
| 20260505140328 | 47 | 0.0 | 0.0 | 0.00 | 0.00 | 0.00 | 75 | 1015.9 | |
| 20260505130251 | 46 | 0.0 | 0.0 | 0.00 | 0.00 | 0.00 | 70 | 1015.4 | |
| 20260505124736 | 46 | 0.0 | 0.0 | 0.00 | 0.00 | 0.00 | 70 | 1015.4 | |
| 20260505124233 | 46 | 0.0 | 0.0 | 0.00 | 0.00 | 0.00 | 71 | 1015.4 | |
| 20260505123729 | 46 | 0.0 | 0.0 | 0.00 | 0.00 | 0.00 | 70 | 1015.4 | |
| 20260505123226 | 46 | 0.0 | 0.0 | 0.00 | 0.00 | 0.00 | 70 | 1015.4 | |
| 20260505122722 | 46 | 0.0 | 0.0 | 0.00 | 0.00 | 0.00 | 70 | 1015.4 | |
| 20260505122219 | 46 | 0.0 | 0.0 | 0.00 | 0.00 | 0.00 | 71 | 1015.9 | |
| 20260505121710 | 46 | 0.0 | 0.0 | 0.00 | 0.00 | 0.00 | 71 | 1015.4 | |
| 20260505121207 | 46 | 0.0 | 0.0 | 0.00 | 0.00 | 0.00 | 71 | 1015.9 | |
| 20260505120703 | 46 | 0.0 | 0.0 | 0.00 | 0.00 | 0.00 | 71 | 1015.9 | |
| 20260505120159 | 46 | 0.0 | 0.0 | 0.00 | 0.00 | 0.00 | 71 | 1015.9 | |
| 20260505115653 | 46 | 0.0 | 0.0 | 0.00 | 0.00 | 0.00 | 71 | 1015.9 | |
| 20260505115151 | 46 | 0.0 | 0.0 | 0.00 | 0.00 | 0.00 | 73 | 1015.9 | |
| 20260505114648 | 46 | 0.0 | 0.0 | 0.00 | 0.00 | 0.00 | 72 | 1015.9 | |
| 20260505114144 | 46 | 0.0 | 0.0 | 0.00 | 0.00 | 0.00 | 72 | 1015.9 | |
| 20260505113640 | 46 | 0.0 | 0.0 | 0.00 | 0.00 | 0.00 | 71 | 1015.9 | |
| 20260505113137 | 46 | 0.0 | 0.0 | 0.00 | 0.00 | 0.00 | 71 | 1016.3 | |
| 20260505112633 | 46 | 0.0 | 0.0 | 0.00 | 0.00 | 0.00 | 71 | 1015.9 | |
| 20260505112132 | 46 | 0.0 | 0.0 | 0.00 | 0.00 | 0.00 | 71 | 1016.3 | |
| 20260505111631 | 46 | 0.0 | 0.0 | 0.00 | 0.00 | 0.00 | 69 | 1016.3 | |
| 20260505111128 | 46 | 0.0 | 0.0 | 0.00 | 0.00 | 0.00 | 69 | 1016.3 | |
| 20260505110624 | 46 | 0.0 | 0.0 | 0.00 | 0.00 | 0.00 | 70 | 1015.9 | |
| 20260505110121 | 47 | 0.0 | 0.0 | 0.00 | 0.00 | 0.00 | 70 | 1016.3 | |
| 20260505102057 | 47 | 0.0 | 0.0 | 0.00 | 0.00 | 0.00 | 63 | 1016.3 | |
| 20260505101555 | 47 | 0.0 | 0.0 | 0.00 | 0.00 | 0.00 | 63 | 1016.3 | |
| 20260505101051 | 47 | 0.0 | 0.0 | 0.00 | 0.00 | 0.00 | 63 | 1016.3 | |
| 20260505100548 | 47 | 0.0 | 0.0 | 0.00 | 0.00 | 0.00 | 63 | 1016.3 | |
| 20260505100045 | 48 | 0.0 | 0.0 | 0.00 | 0.00 | 0.00 | 63 | 1016.3 | |
| 20260505095541 | 48 | 0.0 | 0.0 | 0.00 | 0.00 | 0.00 | 63 | 1016.3 | |
| 20260505095038 | 48 | 0.0 | 0.0 | 0.00 | 0.00 | 0.00 | 63 | 1016.3 | |
| 20260505094534 | 48 | 0.0 | 0.0 | 0.00 | 0.00 | 0.00 | 64 | 1016.3 | |
| 20260505094030 | 48 | 0.0 | 0.0 | 0.00 | 0.00 | 0.00 | 64 | 1016.3 | |
| 20260505093527 | 48 | 0.0 | 0.0 | 0.00 | 0.00 | 0.00 | 64 | 1016.3 | |
| 20260505093024 | 48 | 0.0 | 0.0 | 0.00 | 0.00 | 0.00 | 61 | 1016.6 | |
| 20260505092522 | 49 | 0.0 | 0.0 | 0.00 | 0.00 | 0.00 | 59 | 1016.3 | |
| 20260505092020 | 49 | 0.0 | 0.0 | 0.00 | 0.00 | 0.00 | 59 | 1016.6 | |
| 20260505091516 | 49 | 0.0 | 0.0 | 0.00 | 0.00 | 0.00 | 59 | 1016.6 | |
| 20260505091015 | 49 | 0.0 | 0.0 | 0.00 | 0.00 | 0.00 | 59 | 1016.6 | |
| 20260505090512 | 49 | 0.0 | 0.0 | 0.00 | 0.00 | 0.00 | 60 | 1016.6 | |
| 20260505090010 | 49 | 0.0 | 0.0 | 0.00 | 0.00 | 0.00 | 59 | 1017.1 | |
| 20260505085508 | 49 | 0.0 | 0.0 | 0.00 | 0.00 | 0.00 | 59 | 1016.6 | |
| 20260505085006 | 49 | 0.0 | 0.0 | 0.00 | 0.00 | 0.00 | 59 | 1016.6 | |
| 20260505084504 | 49 | 0.0 | 0.0 | 0.00 | 0.00 | 0.00 | 59 | 1016.6 | |
| 20260505084001 | 49 | 0.0 | 0.0 | 0.00 | 0.00 | 0.00 | 59 | 1016.6 | |
| 20260505083458 | 49 | 0.0 | 0.0 | 0.00 | 0.00 | 0.00 | 58 | 1017.1 | |
| 20260505082954 | 49 | 0.0 | 0.0 | 0.00 | 0.00 | 0.00 | 58 | 1017.1 | |
| 20260505082450 | 49 | 0.0 | 0.0 | 0.00 | 0.00 | 0.00 | 56 | 1017.1 | |
| 20260505081947 | 49 | 0.0 | 0.0 | 0.00 | 0.00 | 0.00 | 57 | 1017.5 | |
| 20260505081444 | 49 | 0.0 | 0.0 | 0.00 | 0.00 | 0.00 | 56 | 1017.1 | |
| 20260505080941 | 49 | 0.0 | 0.0 | 0.00 | 0.00 | 0.00 | 57 | 1017.1 | |
| 20260505080437 | 49 | 0.0 | 0.0 | 0.00 | 0.00 | 0.00 | 57 | 1017.1 | |
| 20260505075932 | 49 | 0.0 | 0.0 | 0.00 | 0.00 | 0.00 | 58 | 1017.5 | |
| 20260505075430 | 49 | 0.0 | 0.0 | 0.00 | 0.00 | 0.00 | 58 | 1017.5 | |
| 20260505074927 | 49 | 0.0 | 0.0 | 0.00 | 0.00 | 0.00 | 57 | 1016.6 | |
| 20260505074424 | 49 | 0.0 | 0.0 | 0.00 | 0.00 | 0.00 | 57 | 1016.6 | |
| 20260505073921 | 49 | 0.0 | 0.0 | 0.00 | 0.00 | 0.00 | 57 | 1016.6 | |
| 20260505073419 | 49 | 0.0 | 0.0 | 0.00 | 0.00 | 0.00 | 57 | 1016.6 | |
| 20260505072916 | 49 | 0.0 | 0.0 | 0.00 | 0.00 | 0.00 | 57 | 1016.6 | |
| 20260505072412 | 49 | 0.0 | 0.0 | 0.00 | 0.00 | 0.00 | 57 | 1016.6 | |
| 20260505071908 | 49 | 0.0 | 0.0 | 0.00 | 0.00 | 0.00 | 57 | 1016.3 | |
| 20260505071404 | 50 | 0.0 | 0.0 | 0.00 | 0.00 | 0.00 | 57 | 1016.6 | |
| 20260505070903 | 50 | 0.0 | 0.0 | 0.00 | 0.00 | 0.00 | 57 | 1016.6 | |
| 20260505070358 | 50 | 0.0 | 0.0 | 0.00 | 0.00 | 0.00 | 58 | 1016.6 | |
| 20260505065854 | 50 | 0.0 | 0.0 | 0.00 | 0.00 | 0.00 | 57 | 1016.3 | |
| 20260505065351 | 50 | 0.0 | 0.0 | 0.00 | 0.00 | 0.00 | 57 | 1016.3 | |
| 20260505064848 | 50 | 0.0 | 0.0 | 0.00 | 0.00 | 0.00 | 57 | 1016.6 | |
| 20260505064345 | 50 | 0.0 | 0.0 | 0.00 | 0.00 | 0.00 | 57 | 1016.6 | |
| 20260505063844 | 50 | 0.0 | 0.0 | 0.00 | 0.00 | 0.00 | 57 | 1016.6 | |
| 20260505063339 | 50 | 0.0 | 0.0 | 0.00 | 0.00 | 0.00 | 57 | 1016.6 | |
| 20260505062836 | 50 | 0.0 | 0.0 | 0.00 | 0.00 | 0.00 | 56 | 1017.1 | |
| 20260505062333 | 50 | 0.0 | 0.0 | 0.00 | 0.00 | 0.00 | 56 | 1017.1 | |
| 20260505061830 | 50 | 0.0 | 0.0 | 0.00 | 0.00 | 0.00 | 56 | 1017.1 | |
| 20260505061328 | 50 | 0.0 | 0.0 | 0.00 | 0.00 | 0.00 | 56 | 1017.1 | |
| 20260505060825 | 51 | 0.0 | 0.0 | 0.00 | 0.00 | 0.00 | 57 | 1017.1 | |
| 20260505060322 | 51 | 0.0 | 0.0 | 0.00 | 0.00 | 0.00 | 56 | 1017.5 | |
| 20260505055818 | 51 | 0.0 | 0.0 | 0.00 | 0.00 | 0.00 | 56 | 1017.1 | |
| 20260505055314 | 51 | 0.0 | 0.0 | 0.00 | 0.00 | 0.00 | 56 | 1017.1 | |
| 20260505054812 | 51 | 0.0 | 0.0 | 0.00 | 0.00 | 0.00 | 55 | 1016.6 | |
| 20260505054309 | 51 | 0.0 | 0.0 | 0.00 | 0.00 | 0.00 | 54 | 1017.5 | |
| 20260505053807 | 51 | 0.0 | 0.0 | 0.00 | 0.00 | 0.00 | 53 | 1017.5 | |
| 20260505053304 | 51 | 0.0 | 0.0 | 0.00 | 0.00 | 0.00 | 53 | 1017.5 | |
| 20260505052801 | 51 | 0.0 | 0.0 | 0.00 | 0.00 | 0.00 | 53 | 1017.5 | |
| 20260505052257 | 51 | 0.0 | 0.0 | 0.00 | 0.00 | 0.00 | 51 | 1017.5 | |
| 20260505051754 | 51 | 0.0 | 0.0 | 0.00 | 0.00 | 0.00 | 51 | 1017.5 | |
| 20260505051252 | 51 | 0.0 | 0.0 | 0.00 | 0.00 | 0.00 | 50 | 1018.0 | |
| 20260505050750 | 52 | 0.0 | 0.0 | 0.00 | 0.00 | 0.00 | 50 | 1018.0 | |
| 20260505050249 | 52 | 0.0 | 0.0 | 0.00 | 0.00 | 0.00 | 50 | 1017.5 | |
| 20260505041717 | 53 | 0.0 | 0.0 | 0.00 | 0.00 | 0.00 | 48 | 1017.1 | |
| 20260505041209 | 53 | 0.0 | 0.0 | 0.00 | 0.00 | 0.00 | 47 | 1017.5 | |
| 20260505040707 | 53 | 0.0 | 0.0 | 0.00 | 0.00 | 0.00 | 48 | 1017.5 | |
| 20260505040204 | 53 | 0.0 | 0.0 | 0.00 | 0.00 | 0.00 | 48 | 1017.5 | |
| 20260505035701 | 53 | 0.0 | 0.0 | 0.00 | 0.00 | 0.00 | 48 | 1017.5 | |
| 20260505035156 | 53 | 0.0 | 0.0 | 0.00 | 0.00 | 0.00 | 48 | 1017.5 | |
| 20260505034652 | 53 | 0.0 | 0.0 | 0.00 | 0.00 | 0.00 | 48 | 1017.1 | |
| 20260505034150 | 53 | 0.0 | 0.0 | 0.00 | 0.00 | 0.00 | 48 | 1017.5 | |
| 20260505033646 | 53 | 0.0 | 0.0 | 0.00 | 0.00 | 0.00 | 48 | 1017.5 | |
| 20260505033145 | 53 | 0.0 | 0.0 | 0.00 | 0.00 | 0.00 | 48 | 1017.1 | |
| 20260505032643 | 54 | 0.0 | 0.0 | 0.00 | 0.00 | 0.00 | 48 | 1017.1 | |
| 20260505032138 | 54 | 0.0 | 0.0 | 0.00 | 0.00 | 0.00 | 48 | 1017.1 | |
| 20260505031636 | 54 | 0.0 | 0.0 | 0.00 | 0.00 | 0.00 | 48 | 1017.1 | |
| 20260505031132 | 54 | 0.0 | 0.0 | 0.00 | 0.00 | 0.00 | 47 | 1017.1 | |
| 20260505030629 | 54 | 0.0 | 0.0 | 0.00 | 0.00 | 0.00 | 47 | 1017.1 | |
| 20260505030125 | 55 | 0.0 | 0.0 | 0.00 | 0.00 | 0.00 | 47 | 1017.1 | |
| 20260505025620 | 55 | 0.0 | 0.0 | 0.00 | 0.00 | 0.00 | 47 | 1017.1 | |
| 20260505025119 | 55 | 0.0 | 0.0 | 0.00 | 0.00 | 0.00 | 46 | 1016.6 | |
| 20260505024616 | 55 | 0.0 | 0.0 | 0.00 | 0.00 | 0.00 | 45 | 1017.1 | |
| 20260505024113 | 55 | 0.0 | 0.0 | 0.00 | 0.00 | 0.00 | 45 | 1016.6 | |
| 20260505023611 | 55 | 0.0 | 0.0 | 0.00 | 0.00 | 0.00 | 44 | 1016.6 | |
| 20260505023108 | 56 | 0.0 | 0.0 | 0.00 | 0.00 | 0.00 | 44 | 1016.6 | |
| 20260505022605 | 56 | 0.0 | 0.0 | 0.00 | 0.00 | 0.00 | 43 | 1016.6 | |
| 20260505022102 | 56 | 0.0 | 0.0 | 0.00 | 0.00 | 0.00 | 42 | 1016.6 | |
| 20260505021559 | 56 | 0.0 | 0.0 | 0.00 | 0.00 | 0.00 | 41 | 1016.6 | |
| 20260505021056 | 56 | 0.0 | 0.0 | 0.00 | 0.00 | 0.00 | 41 | 1016.6 | |
| 20260505020555 | 57 | 0.0 | 0.0 | 0.00 | 0.00 | 0.00 | 41 | 1017.1 | |
| 20260505020053 | 57 | 0.0 | 0.0 | 0.00 | 0.00 | 0.00 | 40 | 1016.6 | |
| 20260505015550 | 57 | 0.0 | 0.0 | 0.00 | 0.00 | 0.00 | 39 | 1017.1 | |
| 20260505015046 | 57 | 0.0 | 0.0 | 0.00 | 0.00 | 0.00 | 38 | 1017.1 | |
| 20260505014543 | 58 | 0.0 | 0.0 | 0.00 | 0.00 | 0.00 | 38 | 1017.1 | |
| 20260505014041 | 58 | 0.0 | 0.0 | 0.00 | 0.00 | 0.00 | 36 | 1017.1 | |
| 20260505013538 | 58 | 0.0 | 0.0 | 0.00 | 0.00 | 0.00 | 36 | 1016.6 | |
| 20260505013035 | 59 | 0.0 | 0.0 | 0.00 | 0.00 | 0.00 | 36 | 1017.1 | |
| 20260505012533 | 59 | 0.0 | 0.0 | 0.00 | 0.00 | 0.00 | 35 | 1016.6 | |
| 20260505012030 | 59 | 0.0 | 0.0 | 0.00 | 0.00 | 0.00 | 35 | 1016.6 | |
| 20260505011525 | 59 | 0.0 | 0.0 | 0.00 | 0.00 | 0.00 | 35 | 1016.6 | |
| 20260505011023 | 59 | 0.0 | 0.0 | 0.00 | 0.00 | 0.00 | 35 | 1016.6 | |
| 20260505010518 | 60 | 0.0 | 0.0 | 0.00 | 0.00 | 0.00 | 35 | 1016.6 | |
| 20260505010015 | 60 | 0.0 | 0.0 | 0.00 | 0.00 | 0.00 | 35 | 1016.6 | |
| 20260505005511 | 60 | 0.0 | 0.0 | 0.00 | 0.00 | 0.00 | 35 | 1016.6 | |
| 20260505005009 | 61 | 0.0 | 0.0 | 0.00 | 0.00 | 0.00 | 35 | 1016.6 | |
| 20260505004506 | 61 | 0.0 | 0.0 | 0.00 | 0.00 | 0.00 | 35 | 1016.6 | |
| 20260505004002 | 61 | 0.0 | 0.0 | 0.00 | 0.00 | 0.00 | 36 | 1016.6 | |
| 20260505003459 | 61 | 0.0 | 0.0 | 0.00 | 0.00 | 0.00 | 36 | 1016.6 | |
| 20260505002955 | 61 | 0.0 | 0.0 | 0.00 | 0.00 | 0.00 | 36 | 1016.6 | |
| 20260505002452 | 61 | 0.0 | 0.0 | 0.00 | 0.00 | 0.00 | 37 | 1017.1 | |
| 20260505001950 | 62 | 0.0 | 0.0 | 0.00 | 0.00 | 0.00 | 36 | 1017.1 | |
| 20260505001447 | 62 | 0.0 | 0.0 | 0.00 | 0.00 | 0.00 | 36 | 1017.1 | |
| 20260505000944 | 62 | 0.0 | 0.0 | 0.00 | 0.00 | 0.00 | 36 | 1017.1 | |
| 20260505000442 | 63 | 0.0 | 0.0 | 0.00 | 0.00 | 0.00 | 36 | 1017.1 | |
| 20260504235939 | 63 | 0.0 | 0.0 | 0.00 | 0.00 | 0.00 | 36 | 1017.1 | |
| 20260504235436 | 63 | 0.0 | 0.0 | 0.00 | 0.00 | 0.00 | 35 | 1017.1 | |
| 20260504234932 | 63 | 0.0 | 0.0 | 0.00 | 0.00 | 0.00 | 35 | 1017.1 | |
| 20260504234430 | 63 | 0.0 | 0.0 | 0.00 | 0.00 | 0.00 | 34 | 1017.1 | |
| 20260504233926 | 63 | 0.0 | 0.0 | 0.00 | 0.00 | 0.00 | 34 | 1017.1 | |
| 20260504233422 | 64 | 0.0 | 0.0 | 0.00 | 0.00 | 0.00 | 33 | 1017.5 | |
| 20260504232919 | 64 | 0.0 | 0.0 | 0.00 | 0.00 | 0.00 | 32 | 1017.5 | |
| 20260504232416 | 64 | 0.0 | 0.0 | 0.00 | 0.00 | 0.00 | 31 | 1017.1 | |
| 20260504231913 | 65 | 0.0 | 0.0 | 0.00 | 0.00 | 0.00 | 30 | 1017.1 | |
| 20260504231409 | 65 | 0.0 | 0.0 | 0.00 | 0.00 | 0.00 | 30 | 1017.5 | |
| 20260504230906 | 66 | 0.0 | 0.0 | 0.00 | 0.00 | 0.00 | 29 | 1017.1 | |
| 20260504230403 | 66 | 0.0 | 0.0 | 0.00 | 0.00 | 0.00 | 28 | 1017.1 | |
| 20260504225903 | 66 | 0.0 | 0.0 | 0.00 | 0.00 | 0.00 | 28 | 1016.6 | |
| 20260504225358 | 66 | 0.0 | 0.0 | 0.00 | 0.00 | 0.00 | 28 | 1016.6 | |
| 20260504224856 | 66 | 0.0 | 0.0 | 0.00 | 0.00 | 0.00 | 28 | 1017.1 | |
| 20260504224352 | 66 | 0.0 | 0.0 | 0.00 | 0.00 | 0.00 | 27 | 1017.1 | |
| 20260504223849 | 66 | 0.0 | 0.0 | 0.00 | 0.00 | 0.00 | 27 | 1017.1 | |
| 20260504223344 | 66 | 0.0 | 0.0 | 0.00 | 0.00 | 0.00 | 26 | 1017.1 | |
| 20260504222841 | 66 | 0.0 | 0.0 | 0.00 | 0.00 | 0.00 | 26 | 1017.1 | |
| 20260504222338 | 66 | 0.0 | 0.0 | 0.00 | 0.00 | 0.00 | 25 | 1017.1 | |
| 20260504221837 | 67 | 0.0 | 0.0 | 0.00 | 0.00 | 0.00 | 24 | 1017.1 | |
| 20260504221333 | 67 | 0.0 | 0.0 | 0.00 | 0.00 | 0.00 | 23 | 1017.1 | |
| 20260504220830 | 67 | 0.0 | 0.0 | 0.00 | 0.00 | 0.00 | 23 | 1017.5 | |
| 20260504220327 | 67 | 0.0 | 0.0 | 0.00 | 0.00 | 0.00 | 23 | 1017.5 | |
| 20260504215824 | 67 | 0.0 | 0.0 | 0.00 | 0.00 | 0.00 | 24 | 1017.1 | |
| 20260504215320 | 67 | 0.0 | 0.0 | 0.00 | 0.00 | 0.00 | 25 | 1017.1 | |
| 20260504214816 | 67 | 0.0 | 0.0 | 0.00 | 0.00 | 0.00 | 25 | 1017.5 | |
| 20260504214314 | 67 | 0.0 | 0.0 | 0.00 | 0.00 | 0.00 | 24 | 1017.1 | |
| 20260504213810 | 67 | 0.0 | 0.0 | 0.00 | 0.00 | 0.00 | 24 | 1017.1 | |
| 20260504213306 | 67 | 0.0 | 0.0 | 0.00 | 0.00 | 0.00 | 23 | 1017.1 | |
| 20260504212804 | 67 | 0.0 | 0.0 | 0.00 | 0.00 | 0.00 | 22 | 1017.1 | |
| 20260504212300 | 68 | 0.0 | 0.0 | 0.00 | 0.00 | 0.00 | 22 | 1016.6 | |
| 20260504211758 | 68 | 0.0 | 0.0 | 0.00 | 0.00 | 0.00 | 22 | 1016.6 |